Location: Newark
(21.0333°N, 105.8500°E)
Time: 01:30:36
(UTC+00:00)

Envisat - Pass Details

Date: 12 December 2019
Orbit: 764 x 766 km, 98.1° (Epoch: 23 January)

Event Time Altitude Azimuth Distance (km) Brightness Sun altitude
Rises 11:13:36 0° 171° (S) 3,215 6.4 -13.2°
Reaches altitude 10° 11:15:54 10° 173° (S) 2,291 5.6 -13.7°
Maximum altitude 11:20:56 75° 258° (WSW) 790 3.2 -14.8°
Drops below altitude 10° 11:26:00 10° 344° (NNW) 2,298 5.4 -15.9°
Sets 11:28:19 0° 346° (NNW) 3,226 6.2 -16.4°
